TimeWEST,TemperatureF,Dew PointF,Humidity,Sea Level PressureIn,VisibilityMPH,Wind Direction,Wind SpeedMPH,Gust SpeedMPH,PrecipitationIn,Events,Conditions,WindDirDegrees,DateUTC
12:00 AM,69.8,64.4,83,30.06,6.2,NNE,5.8,-,N/A,,Mostly Cloudy,30,2013-10-11 23:00:00
12:30 AM,69.8,64.4,83,30.06,6.2,NNE,5.8,-,N/A,,Scattered Clouds,30,2013-10-11 23:30:00
1:00 AM,69,64,81,30.03,6,Calm,Calm,,,,Mostly Cloudy,,2013-10-12 00:00:00
1:00 AM,69.8,64.4,83,30.06,6.2,Calm,Calm,-,N/A,,Mostly Cloudy,0,2013-10-12 00:00:00
1:30 AM,69.8,64.4,83,30.06,6.2,SW,3.5,-,N/A,,Mostly Cloudy,230,2013-10-12 00:30:00
2:00 AM,68.0,64.4,88,30.06,6.2,SSW,3.5,-,N/A,,Mostly Cloudy,210,2013-10-12 01:00:00
2:30 AM,68.0,64.4,88,30.06,6.2,West,3.5,-,N/A,,Mostly Cloudy,280,2013-10-12 01:30:00
3:00 AM,66.2,64.4,94,30.06,6.2,WSW,4.6,-,N/A,,Overcast,240,2013-10-12 02:00:00
3:30 AM,68.0,64.4,88,30.06,6.2,WSW,3.5,-,N/A,,Overcast,250,2013-10-12 02:30:00
4:00 AM,67,64,85,30.02,6,WSW,4.6,,,,Overcast,240,2013-10-12 03:00:00
4:00 AM,66.2,64.4,94,30.06,6.2,WSW,4.6,-,N/A,,Overcast,250,2013-10-12 03:00:00
4:30 AM,68.0,64.4,88,30.06,6.2,SW,3.5,-,N/A,,Overcast,230,2013-10-12 03:30:00
5:00 AM,66.2,62.6,88,30.06,6.2,SW,3.5,-,N/A,,Overcast,230,2013-10-12 04:00:00
5:30 AM,66.2,62.6,88,30.06,6.2,WSW,3.5,-,N/A,,Overcast,250,2013-10-12 04:30:00
6:00 AM,66.2,62.6,88,30.06,6.2,West,2.3,-,N/A,,Overcast,260,2013-10-12 05:00:00
6:30 AM,66.2,62.6,88,30.06,6.2,WSW,3.5,-,N/A,,Overcast,240,2013-10-12 05:30:00
7:00 AM,67,63,84,30.04,6,WSW,3.5,,,,Overcast,250,2013-10-12 06:00:00
7:30 AM,66.2,62.6,88,30.09,6.2,West,3.5,-,N/A,,Overcast,260,2013-10-12 06:30:00
8:00 AM,66.2,64.4,94,30.09,6.2,WSW,4.6,-,N/A,,Overcast,240,2013-10-12 07:00:00
8:30 AM,66.2,64.4,94,30.09,5.6,West,4.6,-,N/A,,Overcast,260,2013-10-12 07:30:00
9:00 AM,66.2,62.6,88,30.12,6.2,West,8.1,-,N/A,,Overcast,260,2013-10-12 08:00:00
9:30 AM,68.0,64.4,88,30.12,6.2,West,8.1,-,N/A,,Overcast,270,2013-10-12 08:30:00
10:00 AM,69,64,77,30.10,6,West,8.1,,,,,280,2013-10-12 09:00:00
10:00 AM,68.0,62.6,83,30.15,6.2,West,8.1,-,N/A,,Unknown,280,2013-10-12 09:00:00
10:30 AM,69.8,62.6,78,30.15,6.2,West,5.8,-,N/A,,Mostly Cloudy,270,2013-10-12 09:30:00
11:00 AM,71.6,64.4,78,30.15,6.2,Variable,4.6,-,N/A,,Mostly Cloudy,0,2013-10-12 10:00:00
11:30 AM,73.4,64.4,73,30.15,6.2,WNW,3.5,-,N/A,,Mostly Cloudy,300,2013-10-12 10:30:00
12:00 PM,73.4,64.4,73,30.15,6.2,Variable,2.3,-,N/A,,Mostly Cloudy,0,2013-10-12 11:00:00
12:30 PM,75.2,64.4,69,30.15,6.2,WNW,5.8,-,N/A,,Mostly Cloudy,290,2013-10-12 11:30:00
1:00 PM,74,64,62,30.09,6,NW,4.6,,,,Mostly Cloudy,320,2013-10-12 12:00:00
1:00 PM,73.4,64.4,73,30.15,6.2,NW,4.6,-,N/A,,Mostly Cloudy,320,2013-10-12 12:00:00
1:30 PM,75.2,62.6,65,30.15,6.2,NW,6.9,-,N/A,,Mostly Cloudy,310,2013-10-12 12:30:00
2:00 PM,77.0,62.6,61,30.12,6.2,WSW,5.8,-,N/A,,Mostly Cloudy,250,2013-10-12 13:00:00
2:30 PM,78.8,62.6,57,30.12,6.2,Variable,2.3,-,N/A,,Mostly Cloudy,0,2013-10-12 13:30:00
3:00 PM,78.8,60.8,54,30.12,6.2,Variable,4.6,-,N/A,,Mostly Cloudy,0,2013-10-12 14:00:00
3:30 PM,78.8,59.0,51,30.12,6.2,Variable,1.2,-,N/A,,Mostly Cloudy,0,2013-10-12 14:30:00
4:00 PM,78,59,42,30.05,6,Calm,Calm,,,,Mostly Cloudy,,2013-10-12 15:00:00
4:00 PM,78.8,59.0,51,30.12,6.2,Variable,1.2,-,N/A,,Mostly Cloudy,0,2013-10-12 15:00:00
4:30 PM,80.6,59.0,48,30.12,6.2,Variable,3.5,-,N/A,,Mostly Cloudy,0,2013-10-12 15:30:00
5:00 PM,82.4,57.2,42,30.12,6.2,WNW,5.8,-,N/A,,Mostly Cloudy,300,2013-10-12 16:00:00
5:30 PM,80.6,57.2,45,30.12,6.2,NW,5.8,-,N/A,,Mostly Cloudy,320,2013-10-12 16:30:00
6:00 PM,80.6,57.2,45,30.12,6.2,North,3.5,-,N/A,,Scattered Clouds,360,2013-10-12 17:00:00
6:30 PM,80.6,57.2,45,30.12,6.2,WNW,3.5,-,N/A,,Scattered Clouds,290,2013-10-12 17:30:00
7:00 PM,79,56,35,30.06,6,WNW,4.6,,,,Scattered Clouds,300,2013-10-12 18:00:00
7:00 PM,78.8,57.2,47,30.12,6.2,WNW,5.8,-,N/A,,Partly Cloudy,300,2013-10-12 18:00:00
7:30 PM,77.0,57.2,50,30.12,6.2,West,4.6,-,N/A,,Partly Cloudy,280,2013-10-12 18:30:00
8:00 PM,75.2,57.2,53,30.12,5.6,West,3.5,-,N/A,,Partly Cloudy,260,2013-10-12 19:00:00
8:30 PM,73.4,57.2,57,30.15,4.3,West,4.6,-,N/A,,Partly Cloudy,280,2013-10-12 19:30:00
9:00 PM,75.2,55.4,50,30.15,6.2,North,5.8,-,N/A,,Partly Cloudy,350,2013-10-12 20:00:00
9:30 PM,75.2,57.2,53,30.15,6.2,NNE,9.2,-,N/A,,Partly Cloudy,20,2013-10-12 20:30:00
10:00 PM,73,59,51,30.10,6,North,9.2,,,,Scattered Clouds,10,2013-10-12 21:00:00
10:00 PM,73.4,59.0,61,30.15,6.2,North,9.2,-,N/A,,Partly Cloudy,10,2013-10-12 21:00:00
10:30 PM,71.6,59.0,64,30.15,6.2,NNE,9.2,-,N/A,,Partly Cloudy,30,2013-10-12 21:30:00
11:00 PM,71.6,59.0,64,30.15,-9999.0,NE,8.1,-,N/A,,Clear,40,2013-10-12 22:00:00
11:30 PM,69.8,59.0,68,30.15,-9999.0,NE,9.2,-,N/A,,Clear,50,2013-10-12 22:30:00